Weather in Melovoye

Russia / Belgorod Oblast     50°54′27″N   36°04′06″E
temp.,
°C
wind,
m/s
gust,
m/s
humid.,
%
clouds,
%
prec.,
mm/h
press.,
hPa
HPBL,
m
11 may, tue
tue1100:00+10nne81868100 0.1 1019724
03:00+9nne71776100 0.1 1018583
06:00+9nne71781100 0.0 1017493
09:00+13ne9157798 0.0 1017777
12:00+13ene71182100 0.1 10181232
15:00+11e610788 0.5 1019995
18:00+13e69675 0.0 10191452
21:00+9ene613765 0.0 1020670
12 may, wed
wed1200:00+8ene71478100 0.0 10211286
03:00+8e81576100 0.0 10201337
06:00+7ene612847 0.0 1021676
09:00+11e91472100 0.0 10201248
12:00+11e71375100 0.4 10191619
15:00+12e81277100 2.1 10171573
18:00+11ese5981100 3.6 1015936
21:00+7e3994100 4.4 1015193
13 may, thu
thu1300:00+8se712949 1.0 1014416
03:00+6se5119767 1.0 1015305
06:00+7se5997100 0.0 1015338
09:00+10sse468771 0.0 1015542
12:00+15s5658100 0.0 10151576
15:00+16ssw4653100 0.0 10141700
18:00+17s36645 0.0 10141374
21:00+11se338299 0.0 101539
14 may, fri
fri1400:00+11e3684100 0.0 1014103
03:00+12ese4119369 0.1 1014239
06:00+12ese41294100 1.1 1013301
09:00+17se712848 2.3 1012560
12:00+22sse796935 0.0 10111282
15:00+23s6964100 0.3 10101457
18:00+22sse4875100 0.3 1010317
21:00+16sse4109041 3.7 1010165
15 may, sat
sat1500:00+15s229519 3.4 101019
03:00+14ssw22900 3.8 101013
06:00+13s34885 0.0 101075
09:00+18ssw467834 0.0 1011439
12:00+21ssw686324 0.0 10111272
15:00+22ssw685649 0.0 10111954
18:00+19sw587462 0.5 1012933
21:00+14wsw33920 0.6 101333